Regional Weather Roundup
Issued by NWS New Orleans/Baton Rouge, LA

Home | Current Version | Previous Version | Graphics & Text | Print | Product List | Glossary On
Versions: 1 2 3 4 5 6 7 8 9 10 11 12 13 14 15 16 17 18 19 20 21 22 23 24 25 26 27 28 29 30 31 32 33 34 35 36 37 38 39 40 41 42 43 44 45 46 47 48 49 50
606
ASUS44 KLIX 270407
RWRLIX
NEW ORLEANS REGIONAL WEATHER ROUNDUP
NATIONAL WEATHER SERVICE NEW ORLEANS LA
1100 PM CDT THU MAR 26 2015

NOTE: "FAIR" INDICATES FEW OR NO CLOUDS BELOW 12,000 FEET WITH NO
      SIGNIFICANT WEATHER AND/OR OBSTRUCTIONS TO VISIBILITY.
      SKY/WX - SKY CONDITION AND SIGNIFICANT WEATHER.
      TMP - AIR TEMPERATURE.     DP    - DEWPOINT TEMPERATURE.
      RH  - RELATIVE HUMIDITY.   PRES  - PRESSURE.
      HI  - HEAT INDEX.          WCI   - WIND CHILL INDEX.

*  THESE STATIONS ARE NOT NWS OR FAA STATIONS AND ARE NOT UNDER
   NWS QUALITY CONTROL.

LAZ038-040-048-061>063-065>067-069-270500-
SOUTHEAST LOUISIANA

CITY           SKY/WX    TMP DP  RH WIND       PRES   REMARKS
N.O. AUDUBON     N/A     66 N/A N/A MISG        N/A
N.O. INTL ARPT CLOUDY    65  62  90 W8        29.90R
N.O. LAKEFRONT CLOUDY    67  62  84 W9        29.90R
SLIDELL        CLOUDY    63  62  97 VRB5      29.89R
BATON ROUGE    CLOUDY    56  50  80 N10G17    29.97R
BOOTHVILLE     PTCLDY    63  62  97 CALM      29.92R
BELLE CHASSE   MOCLDY    63  61  93 SW5       29.89S FOG
BOGALUSA*        N/A     60  55  86 N12       29.94R
GALLIANO*      CLOUDY    54  53  97 W3        29.91S FOG
NEW ROADS*     CLOUDY    55  49  80 NW9       30.00S
GONZALES*      CLOUDY    58  56  93 NW12G21   29.95R
HAMMOND*       CLOUDY    59  54  82 N14       29.96R
HOUMA*         CLOUDY    64  64  97 NW13      29.91R
PORT FOURCHON* CLOUDY    68  64  88 W7G13     29.94S

$$

MSZ070-080>082-270500-
SOUTHERN MISSISSIPPI

CITY           SKY/WX    TMP DP  RH WIND       PRES   REMARKS
MCCOMB         CLOUDY    54  49  83 N12G24    29.96R
GULFPORT       MOCLDY    63  60  90 CALM      29.87R
BILOXI         MOCLDY    63  60  90 W2        29.87
PASCAGOULA     CLOUDY    63  61  93 W3        29.87R

$$

COASTAL OBSERVATIONS
LAKE AND NEARSHORE STATIONS

STATION/POSITION TIME  TEMP    WIND        PRES    WAVE
                       AIR SEA DIR/SP/G            HT/PER
                 (UTC) (F)     (DEG/KT/KT) (MB)    (FT/S)
PASCAGOULA       0300   67     260/ 10/ 12 1010.8
WAVELAND YACHT   0300   63 70  280/  4/  5 1011.5
GRAND ISLE       0300   67 70  310/  7/  9 1012.2
SOUTHWEST PASS   0300   60 51  230/  7/  8 1013.0
NEW CANAL        0300   65     220/  3/  5 1012.6
SHELL BEACH      0300   65 71  290/ 10/ 11 1011.8

OFFSHORE STATIONS

STATION/POSITION TIME  TEMP    WIND        PRES    WAVE
                       AIR SEA DIR/SP/G            HT/PER
                 (UTC) (F)     (DEG/KT/KT) (MB)    (FT/S)
64 S DAUPHIN ISL 0350   72 73  230/ 14/ 16 1011.7    4/ 4

$$




USA.gov is the U.S. government's official web portal to all federal, state and local government web resources and services.